Location: ?????????
(41.1143°N, 22.7905°E)
Time: 05:26:56
(UTC+00:00)

COSMO-SKYMED 1 - Pass Details

Date: 21 March 2026
Orbit: 576 x 578 km, 97.9° (Epoch: 15 April)

Event Time Altitude Azimuth Distance (km) Brightness Sun altitude
Rises 17:18:50 0° 7° (N) 2,799 5.9 -7.8°
Reaches altitude 10° 17:21:01 10° 3° (N) 1,895 5.1 -8.2°
Maximum altitude 17:25:02 55° 287° (WNW) 700 3.3 -8.9°
Drops below altitude 10° 17:29:00 10° 209° (SSW) 1,880 5.3 -9.7°
Sets 17:31:10 0° 205° (SSW) 2,773 6.1 -10.1°
